Regional Weather Roundup
Issued by NWS Cleveland, OH

Home | Current Version | Previous Version | Text Only | Print | Product List | Glossary On
Versions: 1 2 3 4 5 6 7 8 9 10 11 12 13 14 15 16 17 18 19 20 21 22 23 24 25 26 27 28 29 30 31 32 33 34 35 36 37 38 39 40 41 42 43 44 45 46 47 48 49 50
000
ASUS41 KCLE 250412
RWRCLE
OHIO REGIONAL WEATHER ROUNDUP
NATIONAL WEATHER SERVICE WILMINGTON, OH
1200 AM EDT SAT MAR 25 2017

NOTE: "FAIR" INDICATES FEW OR NO CLOUDS BELOW 12,000 FEET WITH NO
SIGNIFICANT WEATHER AND/OR OBSTRUCTIONS TO VISIBILITY.

OHZ001>008-015>018-024>027-034-035-043-044-250500-
   NORTHWEST OHIO

CITY           SKY/WX    TMP DP  RH WIND       PRES   REMARKS
DEFIANCE       FAIR      62  52  69 SW8       30.05S
FINDLAY        FAIR      61  51  70 S9        30.06S
TOLEDO EXPRESS FAIR      65  53  65 SW15      30.03S
TOLEDO EXEC    FAIR      64  54  69 SW13      30.04S
LIMA           FAIR      63  53  70 S9        30.08F
$$

OHZ009>014-019>023-028>033-038-089-250500-
   NORTHEAST OHIO

CITY           SKY/WX    TMP DP  RH WIND       PRES   REMARKS
CLE-HOPKINS    MOCLDY    67  51  56 S13       30.07F
CLE-LAKEFRONT  FAIR      68  52  56 S12       30.04R
CUY CO. ARPT   NOT AVBL
LORAIN-ELYRIA  FAIR      63  51  65 SW15      30.06S
ASHTABULA      FAIR      64  52  64 SW9       30.07R
AKRON-CANTON   FAIR      62  51  67 SW9       30.10S
WOOSTER        FAIR      63  52  67 SW15      30.10S
MANSFIELD      FAIR      62  53  72 MISG      30.11R
YOUNGSTOWN     FAIR      64  51  62 SW12      30.09R
$$

OHZ042-051>053-060>062-070>072-077>081-250500-
  SOUTHWEST OHIO

CITY           SKY/WX    TMP DP  RH WIND       PRES   REMARKS
CINC-COVINGTON CLOUDY    65  52  62 SW8       30.14S
CINC-LUNKEN    FAIR      58  52  80 S3        30.15R
HAMILTON       CLOUDY    66  53  63 S3        30.14S
DAYTON         MOCLDY    63  52  67 SW12      30.13R
WRIGHT-PAT AFB FAIR      64  53  66 S9        30.12S
DAYTON GENERAL CLOUDY    66  52  60 SW8       30.13R
WILMINGTON     FAIR      62  52  69 SW8       30.14R
$$

OHZ036-037-039>041-045>050-054>059-063>069-073>076-082>088-250500-
  CENTRAL AND SOUTHEAST OHIO

CITY           SKY/WX    TMP DP  RH WIND       PRES   REMARKS
COLUMBUS       MOCLDY    63  52  67 S5        30.13S
OSU AIRPORT    FAIR      61  53  75 SW8       30.12S
BOLTON FIELD   FAIR      59  52  78 SW7       30.14R
RICKENBACK AFB FAIR      60  52  73 SW6       30.13S
NEWARK         FAIR      61  51  70 SW3       30.12S
MARION         MOCLDY    60  52  74 SW9       30.11R
LANCASTER      FAIR      65  52  62 SW3       30.14R
ZANESVILLE     FAIR      65  50  58 S5        30.13R
NEW PHILLY     FAIR      66  52  60 SW6       30.12S
$$



USA.gov is the U.S. government's official web portal to all federal, state and local government web resources and services.